Weather in Obninsk

Russia / Kaluga Oblast     55°06′43″N   36°35′11″E
temp.,
°C
wind,
m/s
gust,
m/s
humid.,
%
clouds,
%
prec.,
mm/h
press.,
hPa
HPBL,
m
8 may, sat
sat800:00+7sse31176100 0.0 1011251
03:00+8sse41383100 0.6 1010634
06:00+8sse51294100 4.1 10081171
09:00+8se51296100 12.6 1006980
12:00+8sse3997100 5.5 1005612
15:00+9se2798100 9.6 1003524
18:00+9sse2698100 5.9 1002423
21:00+8nnw4997100 9.1 1002519
9 may, sun
sun900:00+6nnw71295100 4.5 1003831
03:00+3nw71398100 10.4 1006960
06:00+3nw71394100 2.7 1009955
09:00+4nw71188100 3.0 10121065
12:00+6nw61079100 0.2 10151190
15:00+10nnw6105694 0.3 10161962
18:00+10nnw510586 0.1 10181613
21:00+5nw39765 0.1 1022161
10 may, mon
mon1000:00+3nw310790 0.0 1024189
03:00+1nnw28790 0.0 1026161
06:00+2n25770 0.0 1028125
09:00+9nne25480 0.0 1029622
12:00+13n35355 0.0 10291394
15:00+14nne34355 0.0 10281588
18:00+13nne25505 0.0 1028430
21:00+7ne22670 0.0 103018
11 may, tue
tue1100:00+5ene22820 0.0 103017
03:00+4ne23840 0.0 103145
06:00+5ne28805 0.0 1031204
09:00+11ene495427 0.0 1030704
12:00+15ene57445 0.0 10291068
15:00+17ene46462 0.0 10281019
18:00+16e47595 0.0 1028798
21:00+10ene228239 0.0 102832
12 may, wed
wed1200:00+9ene3990100 0.0 1027172
03:00+8ene311885 0.0 1026240
06:00+9ene4119113 0.0 1025317
09:00+15ene61274100 0.0 1023728
12:00+13e61593100 1.1 1023992
15:00+12sse36946 1.6 1024396
18:00+15ese257493 0.0 1024794
21:00+10ene229278 0.0 102413